Regional Weather Roundup
Issued by NWS

Home | Current Version | Previous Version | Graphics & Text | Print | Product List | Glossary On
Versions: 1 2 3 4 5 6 7 8 9 10 11 12 13 14 15 16 17 18 19 20 21 22 23 24 25 26 27 28 29 30 31 32 33 34 35 36 37 38 39 40 41 42 43 44 45 46 47 48 49 50
000
ASUS43 KOAX 221310
RWRNE

WEATHER ROUNDUP FOR NEBRASKA
NATIONAL WEATHER SERVICE OMAHA NE
800 AM CDT WED OCT 22 2014

NOTES: SATELLITE DATA IS BEING USED TO AUGMENT CLOUD COVER ABOVE
       12000 FEET.
       "FAIR" INDICATES FEW OR NO CLOUDS BELOW 12,000 FEET WITH NO
       SIGNIFICANT WEATHER AND/OR OBSTRUCTIONS TO VISIBILITY.

  * THESE STATIONS DO NOT REPORT WEATHER SUCH AS RAIN...SNOW OR FOG.

NEZ001>004-019>022-054>056-221400-
NEBRASKA PANHANDLE

CITY           SKY/WX    TMP DP  RH WIND       PRES   REMARKS
SCOTTSBLUFF    MOCLDY    48  45  89 NW5       30.00R
ALLIANCE       CLOUDY    47  46  97 SW8       29.97R
CHADRON        CLOUDY    52  37  56 W12       29.97R
KIMBALL        PTCLDY    46  42  83 NW9       30.01S
SIDNEY         CLOUDY    50  46  86 NW5       30.01R
$$

NEZ057>060-069>072-079>082-221400-
SOUTHWEST NEBRASKA

CITY           SKY/WX    TMP DP  RH WIND       PRES   REMARKS
NORTH PLATTE   CLOUDY    56  50  80 W5        29.96R
IMPERIAL       CLOUDY    54  46  74 N7        29.96R
LEXINGTON      MOCLDY    57  52  82 S12       29.95S
MCCOOK         MOCLDY    57  49  74 SW6       29.96R
OGALLALA       HVY RAIN  55  49  82 CALM      29.98R
$$

NEZ005>010-023>029-035>040-094-221400-
NORTH CENTRAL NEBRASKA

CITY           SKY/WX    TMP DP  RH WIND       PRES   REMARKS
VALENTINE      CLOUDY    60  49  66 W9        29.90R
AINSWORTH      CLOUDY    56  52  84 S5        29.90S
BROKEN BOW     CLOUDY    56  52  86 SE8       29.94S
O`NEILL        CLOUDY    57  55  90 S13       29.93S
ORD            CLOUDY    55  53  93 SE7       29.95S FOG
THEDFORD       LGT RAIN  57  52  84 SW9       29.96R
$$

NEZ041-046>049-061>064-073>077-083>087-221400-
SOUTH CENTRAL NEBRASKA

CITY           SKY/WX    TMP DP  RH WIND       PRES   REMARKS
GRAND ISLAND   MOCLDY    57  53  86 S14G23    30.00S
AURORA         CLEAR     54  52  92 S12       30.01S FOG
HASTINGS       PTCLDY    55  52  89 S12       30.00S FOG
HEBRON         CLEAR     55  50  83 S10       30.05S
HOLDREGE       PTCLDY    56  51  85 S14       29.97S
KEARNEY *      MOCLDY    55  52  88 SE14      29.99S
YORK           CLEAR     54  48  82 S15       30.03S
$$

NEZ011>018-030>034-042>045-221400-
NORTHEAST NEBRASKA

CITY           SKY/WX    TMP DP  RH WIND       PRES   REMARKS
NORFOLK        CLEAR     54  45  71 S15       30.00F
ALBION         PTCLDY    52  47  83 SE9       30.00S
BLAIR          CLEAR     55  44  66 SE15      30.08S
COLUMBUS *     CLEAR     54  43  66 SE13      30.04S
FREMONT        CLEAR     55  45  68 SE13      30.07S
TEKAMAH        CLEAR     53  44  71 SE9       30.08S
WAYNE          CLEAR     53  45  72 S17G24    30.02S
$$

NEZ050>053-065>068-078-088>093-221400-
SOUTHEAST NEBRASKA

CITY           SKY/WX    TMP DP  RH WIND       PRES   REMARKS
LINCOLN        CLEAR     53  44  71 S14       30.08S
OMAHA EPPLEY   PTCLDY    54  44  69 SE16      30.11S
BEATRICE       CLEAR     54  45  72 SE10      30.08S
FALLS CITY     PTCLDY    51  46  83 SE9       30.13S
NEBRASKA CITY  CLEAR     52  42  69 S10       30.12S
PLATTSMOUTH    CLEAR     52  43  70 SE15      30.11S
$$

NEZ044-045-051>053-067-221400-
OMAHA AREA

CITY           SKY/WX    TMP DP  RH WIND       PRES   REMARKS
OMAHA EPPLEY   PTCLDY    54  44  69 SE16      30.11S
BLAIR          CLEAR     55  44  66 SE15      30.08S
FREMONT        CLEAR     55  45  68 SE13      30.07S
MILLARD        PTCLDY    54  46  74 SE9       30.10S
OFFUTT AFB     PTCLDY    53  49  87 E12       30.11S
PLATTSMOUTH    CLEAR     52  43  70 SE15      30.11S
WAHOO          FAIR      52  44  74 SE9       30.07F
$$



USA.gov is the U.S. government's official web portal to all federal, state and local government web resources and services.